EW9092 Weather Reports


Display with metric or nautical units.
time (UTC)temp
F
wind
direction
speed
MPH
gust
MPH
rain 1hr
in
rain 24hr
in
rain mn
in
humidity
%
barometer
mb
20260831140822 73 169 1.0 4.0 0.00 0.02 0.02 79 1016.8
20260831140322 73 139 2.0 5.0 0.00 0.02 0.02 80 1016.8
20260831135820 72 117 2.0 5.0 0.00 0.02 0.02 81 1017.1
20260831135318 72 113 1.0 5.0 0.00 0.02 0.02 81 1017.1
20260831134818 71 150 0.0 3.0 0.00 0.02 0.02 83 1017.1
20260831134320 71 143 1.0 4.0 0.00 0.02 0.02 84 1017.0
20260831133815 71 240 2.0 5.0 0.00 0.02 0.02 85 1017.0
20260831133308 71 138 2.0 5.0 0.00 0.02 0.02 84 1017.0
20260831133022 71 145 1.0 4.0 0.00 0.02 0.02 85 1017.1
20260831132252 71 141 0.0 2.0 0.01 0.02 0.02 85 1017.0
20260831131751 71 132 0.0 2.0 0.01 0.02 0.02 85 1017.0
20260831131247 71 76 2.0 7.0 0.02 0.02 0.02 85 1017.0
20260831130745 71 20 3.0 8.0 0.02 0.02 0.02 85 1017.1
20260831130245 70 18 3.0 8.0 0.02 0.02 0.02 84 1017.1
20260831130232 70 302 2.0 7.0 0.02 0.02 0.02 85 1017.1
20260831125244 70 311 2.0 7.0 0.02 0.02 0.02 85 1017.3
20260831124746 70 271 4.0 11.0 0.02 0.02 0.02 85 1017.5
20260831124244 70 295 5.0 11.0 0.02 0.02 0.02 84 1017.6
20260831123750 70 269 5.0 14.0 0.02 0.02 0.02 85 1017.6
20260831123246 70 278 5.0 14.0 0.02 0.02 0.02 85 1017.4
20260831123012 71 301 5.0 10.0 0.02 0.02 0.02 85 1017.7
20260831122244 71 259 6.0 10.0 0.01 0.01 0.01 84 1017.7
20260831121744 71 281 6.0 12.0 0.01 0.01 0.01 82 1017.5
20260831121245 71 252 5.0 12.0 0.00 0.00 0.00 80 1017.7
20260831120744 72 316 5.0 12.0 0.00 0.00 0.00 79 1017.7
20260831120242 72 281 5.0 12.0 0.00 0.00 0.00 79 1017.6
20260831115742 73 263 5.0 12.0 0.00 0.00 0.00 78 1017.1
20260831115240 73 281 7.0 15.0 0.00 0.00 0.00 77 1017.1
20260831114740 73 269 9.0 16.0 0.00 0.00 0.00 76 1016.7
20260831114505 74 273 10.0 21.0 0.00 0.00 0.00 74 1016.6
20260831113738 74 257 9.0 21.0 0.00 0.00 0.00 70 1016.5
20260831113238 76 238 9.0 16.0 0.00 0.00 0.00 69 1016.3
20260831112738 77 229 10.0 24.0 0.00 0.00 0.00 66 1016.0
20260831112237 78 224 9.0 24.0 0.00 0.00 0.00 62 1016.1
20260831111736 81 290 5.0 22.0 0.00 0.00 0.00 54 1015.9
20260831111238 82 208 2.0 5.0 0.00 0.00 0.00 50 1015.3
20260831110736 82 217 1.0 3.0 0.00 0.00 0.00 50 1015.2
20260831110237 82 224 1.0 3.0 0.00 0.00 0.00 50 1015.2
20260831105735 82 259 0.0 3.0 0.00 0.00 0.00 50 1015.1
20260831105453 82 219 0.0 0.0 0.00 0.00 0.00 50 1014.9
20260831104724 82 219 0.0 3.0 0.00 0.00 0.00 50 1014.7
20260831104445 82 240 0.0 3.0 0.00 0.00 0.00 50 1014.4
20260831103717 82 231 0.0 0.0 0.00 0.00 0.00 50 1014.4
20260831103213 82 11 0.0 0.0 0.00 0.00 0.00 50 1014.4
20260831102716 82 11 0.0 0.0 0.00 0.00 0.00 49 1014.4
20260831102210 82 11 1.0 3.0 0.00 0.00 0.00 49 1014.4
20260831101711 82 356 1.0 4.0 0.00 0.00 0.00 49 1014.4
20260831101210 82 84 2.0 5.0 0.00 0.00 0.00 49 1014.5
20260831100708 82 75 2.0 7.0 0.00 0.00 0.00 49 1014.5
20260831100210 82 207 2.0 7.0 0.00 0.00 0.00 49 1014.2
20260831095707 82 82 1.0 4.0 0.00 0.00 0.00 50 1014.2
20260831095208 82 139 1.0 4.0 0.00 0.00 0.00 52 1014.1
20260831094708 82 240 0.0 3.0 0.00 0.00 0.00 53 1014.1
20260831094208 81 221 0.0 0.0 0.00 0.00 0.00 53 1014.1
20260831093708 82 224 0.0 0.0 0.00 0.00 0.00 52 1014.1
20260831093206 82 224 0.0 0.0 0.00 0.00 0.00 53 1014.2
20260831092705 82 215 0.0 0.0 0.00 0.00 0.00 53 1014.2
20260831092159 82 204 0.0 0.0 0.00 0.00 0.00 53 1014.2
20260831091653 82 204 0.0 0.0 0.00 0.00 0.00 52 1014.4
20260831091145 82 204 0.0 0.0 0.00 0.00 0.00 52 1014.4
20260831090646 82 205 0.0 0.0 0.00 0.00 0.00 52 1014.4
20260831090411 82 205 0.0 2.0 0.00 0.00 0.00 51 1014.2
20260831085914 83 124 0.0 2.0 0.00 0.00 0.00 50 1014.2
20260831085146 83 107 0.0 0.0 0.00 0.00 0.00 49 1014.4
20260831084650 83 107 0.0 1.0 0.00 0.00 0.00 49 1014.4
20260831084145 83 107 0.0 1.0 0.00 0.00 0.00 49 1014.4
20260831083642 83 107 1.0 3.0 0.00 0.00 0.00 49 1014.5
20260831083142 83 99 1.0 3.0 0.00 0.00 0.00 49 1014.5
20260831082642 83 89 1.0 3.0 0.00 0.00 0.00 49 1014.5
20260831082140 83 58 0.0 2.0 0.00 0.00 0.00 50 1014.5
20260831081859 83 15 0.0 2.0 0.00 0.00 0.00 50 1014.6
20260831081139 83 15 0.0 2.0 0.00 0.00 0.00 50 1014.6
20260831080641 83 135 0.0 0.0 0.00 0.00 0.00 50 1014.6
20260831080136 83 135 0.0 0.0 0.00 0.00 0.00 49 1014.7
20260831075630 83 136 0.0 0.0 0.00 0.00 0.00 49 1014.7
20260831075130 84 135 0.0 0.0 0.00 0.00 0.00 49 1014.7
20260831074627 84 135 0.0 0.0 0.00 0.00 0.00 49 1014.7
20260831074128 84 135 0.0 0.0 0.00 0.00 0.00 49 1014.6
20260831073628 84 135 0.0 0.0 0.00 0.00 0.00 49 1014.7
20260831073126 84 135 0.0 0.0 0.00 0.00 0.00 48 1014.7
20260831072626 85 135 0.0 0.0 0.00 0.00 0.00 48 1014.6
20260831072123 85 135 0.0 0.0 0.00 0.00 0.00 46 1014.6
20260831071623 85 135 0.0 0.0 0.00 0.00 0.00 46 1014.8
20260831071346 85 135 0.0 0.0 0.00 0.00 0.00 46 1014.8
20260831070623 85 135 0.0 0.0 0.00 0.00 0.00 46 1014.8
20260831070119 85 148 0.0 0.0 0.00 0.00 0.00 45 1014.8
20260831065620 86 214 0.0 0.0 0.00 0.00 0.00 45 1014.8
20260831065115 86 215 0.0 0.0 0.00 0.00 0.00 45 1014.8
20260831064612 86 215 0.0 0.0 0.00 0.00 0.00 44 1014.8
20260831064113 86 215 0.0 0.0 0.00 0.00 0.00 44 1014.8
20260831063607 86 212 0.0 0.0 0.00 0.00 0.00 44 1014.8
20260831063108 86 212 0.0 0.0 0.00 0.00 0.00 44 1014.9
20260831062604 86 212 0.0 0.0 0.00 0.00 0.00 44 1015.0
20260831062104 86 228 0.0 2.0 0.00 0.00 0.00 44 1015.0
20260831061603 86 233 0.0 3.0 0.00 0.00 0.00 44 1014.9
20260831061319 86 229 1.0 3.0 0.00 0.00 0.00 44 1015.0
20260831060823 86 251 1.0 2.0 0.00 0.00 0.00 44 1015.1
20260831060325 86 256 0.0 2.0 0.00 0.00 0.00 43 1015.1
20260831055600 86 251 0.0 2.0 0.00 0.00 0.00 43 1014.9
20260831055321 87 259 0.0 2.0 0.00 0.00 0.00 43 1014.8
20260831054820 87 259 1.0 2.0 0.00 0.00 0.00 43 1014.8
20260831054055 87 244 0.0 2.0 0.00 0.00 0.00 42 1014.7
20260831053556 87 266 1.0 2.0 0.00 0.00 0.00 43 1014.8
20260831053055 87 254 1.0 3.0 0.00 0.00 0.00 43 1014.8
20260831052555 87 247 0.0 3.0 0.00 0.00 0.00 42 1014.8
20260831052055 87 212 1.0 2.0 0.00 0.00 0.00 42 1014.8
20260831051557 87 249 1.0 4.0 0.00 0.00 0.00 42 1014.7
20260831051055 87 253 1.0 4.0 0.00 0.00 0.00 42 1014.6
20260831050555 87 232 1.0 3.0 0.00 0.00 0.00 42 1014.6
20260831050057 87 260 2.0 5.0 0.00 0.00 0.00 41 1014.5
20260831045556 87 263 3.0 6.0 0.00 0.00 0.00 41 1014.4
20260831045056 88 249 2.0 6.0 0.00 0.00 0.00 41 1014.4
20260831044557 88 250 2.0 6.0 0.00 0.00 0.00 41 1014.4
20260831044056 88 288 2.0 6.0 0.00 0.00 0.00 41 1014.5
20260831043830 88 279 3.0 6.0 0.00 0.00 0.00 41 1014.5
20260831043057 88 300 3.0 6.0 0.00 0.00 0.00 41 1014.5
20260831042557 88 271 3.0 9.0 0.00 0.00 0.00 41 1014.6
20260831042325 88 270 3.0 10.0 0.00 0.00 0.00 40 1014.5
20260831041551 88 281 4.0 10.0 0.00 0.00 0.00 40 1014.4
20260831041051 88 269 3.0 7.0 0.00 0.00 0.00 40 1014.2
20260831040551 88 259 3.0 8.0 0.00 0.00 0.00 40 1014.2
20260831040051 88 318 3.0 9.0 0.00 0.00 0.00 40 1014.1
20260831035551 88 283 4.0 10.0 0.00 0.00 0.00 40 1014.1
20260831035052 88 270 4.0 11.0 0.00 0.00 0.00 39 1014.0
20260831034552 89 302 4.0 11.0 0.00 0.00 0.00 39 1013.9
20260831034047 89 252 5.0 11.0 0.00 0.00 0.00 39 1013.9
20260831033540 89 271 5.0 12.0 0.00 0.00 0.00 39 1013.8
20260831033030 89 273 5.0 12.0 0.00 0.00 0.00 38 1013.7
20260831032524 89 27 5.0 12.0 0.00 0.00 0.00 38 1013.6
20260831032018 90 273 5.0 12.0 0.00 0.00 0.00 38 1013.5
20260831031727 90 255 6.0 13.0 0.00 0.00 0.00 38 1013.4
20260831031002 91 271 7.0 14.0 0.00 0.00 0.00 37 1013.2
20260831030456 92 247 6.0 14.0 0.00 0.00 0.00 36 1013.1
20260831025946 93 261 4.0 12.0 0.00 0.00 0.00 35 1012.8
20260831025438 93 274 3.0 10.0 0.00 0.00 0.00 34 1012.7
20260831024937 94 285 2.0 8.0 0.00 0.00 0.00 33 1012.5
20260831024438 94 287 2.0 8.0 0.00 0.00 0.00 33 1012.3
20260831024200 94 274 2.0 8.0 0.00 0.00 0.00 33 1012.2
20260831023435 94 268 2.0 7.0 0.00 0.00 0.00 33 1012.2
20260831022936 94 283 2.0 5.0 0.00 0.00 0.00 33 1012.0
20260831022433 94 271 3.0 6.0 0.00 0.00 0.00 32 1011.9
20260831021933 94 280 4.0 8.0 0.00 0.00 0.00 32 1011.9
20260831021433 94 253 4.0 8.0 0.00 0.00 0.00 31 1011.8
20260831021205 94 258 4.0 9.0 0.00 0.00 0.00 31 1011.8
20260831020433 94 264 3.0 9.0 0.00 0.00 0.00 31 1011.8
20260831015933 94 292 3.0 7.0 0.00 0.00 0.00 31 1011.8
20260831015433 94 259 3.0 8.0 0.00 0.00 0.00 31 1011.8
20260831014934 95 254 3.0 8.0 0.00 0.00 0.00 31 1011.6
20260831014433 95 238 2.0 6.0 0.00 0.00 0.00 31 1011.6
20260831013931 95 264 3.0 6.0 0.00 0.00 0.00 31 1011.6
20260831013431 95 259 3.0 7.0 0.00 0.00 0.00 31 1011.5
20260831012934 95 243 2.0 7.0 0.00 0.00 0.00 30 1011.5
20260831012432 95 271 2.0 6.0 0.00 0.00 0.00 30 1011.5
20260831011933 95 257 2.0 6.0 0.00 0.00 0.00 30 1011.5
20260831011433 96 279 2.0 6.0 0.00 0.00 0.00 30 1011.4
20260831010931 96 262 3.0 7.0 0.00 0.00 0.00 30 1011.4
20260831010652 96 286 3.0 7.0 0.00 0.00 0.00 29 1011.5
20260831005931 96 275 3.0 7.0 0.00 0.00 0.00 30 1011.4
20260831005431 96 233 2.0 6.0 0.00 0.00 0.00 29 1011.4
20260831004930 97 260 3.0 6.0 0.00 0.00 0.00 29 1011.4
20260831004431 97 255 4.0 8.0 0.00 0.00 0.00 29 1011.4
20260831003929 97 268 3.0 8.0 0.00 0.00 0.00 29 1011.4
20260831003427 98 323 2.0 7.0 0.00 0.00 0.00 28 1011.4
20260831002927 98 292 3.0 7.0 0.00 0.00 0.00 28 1011.4
20260831002647 98 248 3.0 6.0 0.00 0.00 0.00 28 1011.5
20260831001928 98 259 4.0 9.0 0.00 0.00 0.00 28 1011.5
20260831001428 99 265 4.0 9.0 0.00 0.00 0.00 28 1011.6
20260831000927 99 256 3.0 7.0 0.00 0.00 0.00 28 1011.5
20260831000427 99 252 3.0 7.0 0.00 0.00 0.00 28 1011.5
20260830235927 99 250 4.0 11.0 0.00 0.00 0.00 27 1011.5
20260830235427 100 279 4.0 11.0 0.00 0.00 0.00 27 1011.5
20260830234928 100 227 3.0 9.0 0.00 0.00 0.00 27 1011.4
20260830234427 100 276 2.0 9.0 0.00 0.00 0.00 27 1011.4
20260830233929 101 250 1.0 4.0 0.00 0.00 0.00 27 1011.4
20260830233651 101 252 1.0 3.0 0.00 0.00 0.00 26 1011.4
20260830232923 100 245 2.0 5.0 0.00 0.00 0.00 26 1011.6
20260830232422 99 240 3.0 9.0 0.00 0.00 0.00 27 1011.6
20260830231919 99 220 4.0 9.0 0.00 0.00 0.00 28 1011.8
20260830231418 100 244 3.0 6.0 0.00 0.00 0.00 28 1011.9
20260830230917 100 259 4.0 11.0 0.00 0.00 0.00 28 1012.0
20260830230416 99 269 3.0 11.0 0.00 0.00 0.00 28 1012.0
20260830225916 99 252 2.0 6.0 0.00 0.00 0.00 29 1012.0
20260830225418 99 212 3.0 8.0 0.00 0.00 0.00 28 1012.2
20260830225141 98 242 2.0 8.0 0.00 0.00 0.00 29 1012.2
20260830224904 99 356 1.0 6.0 0.00 0.00 0.00 29 1012.3
20260830223913 100 270 3.0 8.0 0.00 0.00 0.00 28 1012.4
20260830223632 100 220 5.0 9.0 0.00 0.00 0.00 28 1012.5
20260830222911 100 217 4.0 9.0 0.00 0.00 0.00 28 1012.7
20260830222411 101 238 3.0 8.0 0.00 0.00 0.00 28 1012.7
20260830221912 100 216 3.0 7.0 0.00 0.00 0.00 29 1012.8
20260830221410 100 282 3.0 7.0 0.00 0.00 0.00 27 1012.8
20260830220911 100 281 2.0 7.0 0.00 0.00 0.00 27 1012.9
20260830220631 100 18 2.0 7.0 0.00 0.00 0.00 26 1013.1
20260830215915 101 245 2.0 6.0 0.00 0.00 0.00 26 1013.2
20260830215404 101 217 3.0 6.0 0.00 0.00 0.00 26 1013.2
20260830215337 101 212 2.0 5.0 0.00 0.00 0.00 26 1013.3
20260830214352 100 236 4.0 9.0 0.00 0.00 0.00 26 1013.4
20260830213843 98 314 6.0 11.0 0.00 0.00 0.00 26 1013.5
20260830213605 100 329 3.0 11.0 0.00 0.00 0.00 26 1013.5
20260830213047 101 282 2.0 5.0 0.00 0.00 0.00 26 1013.6
20260830212319 101 45 2.0 6.0 0.00 0.00 0.00 25 1013.7
20260830212040 102 252 1.0 6.0 0.00 0.00 0.00 25 1013.8
20260830211310 102 117 1.0 3.0 0.00 0.00 0.00 25 1013.9
20260830211017 101 285 1.0 3.0 0.00 0.00 0.00 26 1014.0
20260830210251 100 72 1.0 6.0 0.00 0.00 0.00 26 1014.1
20260830205747 99 129 2.0 6.0 0.00 0.00 0.00 27 1014.2
20260830205713 99 328 2.0 6.0 0.00 0.00 0.00 27 1014.4
20260830204731 100 295 2.0 7.0 0.00 0.00 0.00 26 1014.6
20260830204225 100 252 2.0 7.0 0.00 0.00 0.00 27 1014.6
20260830203715 100 203 3.0 7.0 0.00 0.00 0.00 27 1014.7
20260830203209 99 202 3.0 7.0 0.00 0.00 0.00 27 1014.8
20260830202703 99 230 3.0 10.0 0.00 0.00 0.00 27 1014.9
20260830202154 98 258 4.0 10.0 0.00 0.00 0.00 28 1015.0
20260830201648 99 243 4.0 9.0 0.00 0.00 0.00 27 1015.1
20260830201141 99 155 3.0 9.0 0.00 0.00 0.00 28 1015.0
20260830201108 100 171 1.0 6.0 0.00 0.00 0.00 28 1015.2
20260830200604 99 182 2.0 10.0 0.00 0.00 0.00 28 1015.3
20260830195625 99 124 3.0 10.0 0.00 0.00 0.00 28 1015.4
20260830195119 100 134 2.0 6.0 0.00 0.00 0.00 29 1015.4
20260830194617 99 229 1.0 5.0 0.00 0.00 0.00 29 1015.4
20260830194116 99 175 2.0 6.0 0.00 0.00 0.00 29 1015.7
20260830193617 98 219 4.0 8.0 0.00 0.00 0.00 30 1015.7
20260830193115 97 198 3.0 8.0 0.00 0.00 0.00 30 1015.8
20260830192833 97 222 2.0 7.0 0.00 0.00 0.00 31 1015.9
20260830192115 96 250 3.0 8.0 0.00 0.00 0.00 31 1016.0
20260830191616 96 243 4.0 8.0 0.00 0.00 0.00 31 1016.1
20260830191338 96 248 4.0 9.0 0.00 0.00 0.00 31 1016.2
20260830190614 97 217 4.0 9.0 0.00 0.00 0.00 31 1016.2
20260830190115 97 249 3.0 8.0 0.00 0.00 0.00 31 1016.3
20260830185615 96 256 3.0 8.0 0.00 0.00 0.00 31 1016.3
20260830185350 96 231 3.0 8.0 0.00 0.00 0.00 31 1016.3
20260830184610 97 212 2.0 8.0 0.00 0.00 0.00 30 1016.3
20260830184326 97 205 2.0 6.0 0.00 0.00 0.00 30 1016.4
20260830183829 96 182 2.0 7.0 0.00 0.00 0.00 32 1016.4
20260830183312 96 250 2.0 7.0 0.00 0.00 0.00 31 1016.5
20260830182546 95 157 2.0 6.0 0.00 0.00 0.00 33 1016.6
20260830182048 95 89 2.0 7.0 0.00 0.00 0.00 33 1016.7
20260830181547 95 216 2.0 7.0 0.00 0.00 0.00 33 1016.8
20260830181047 95 227 2.0 5.0 0.00 0.00 0.00 33 1016.8
20260830180547 94 229 2.0 6.0 0.00 0.00 0.00 35 1017.0
20260830180047 94 254 3.0 7.0 0.00 0.00 0.00 36 1017.1
20260830175547 93 150 3.0 9.0 0.00 0.00 0.00 37 1017.1
20260830175048 92 220 3.0 9.0 0.00 0.00 0.00 39 1017.1
20260830174547 92 172 3.0 7.0 0.00 0.00 0.00 38 1017.1
20260830174043 92 143 3.0 6.0 0.00 0.00 0.00 39 1017.2
20260830173812 91 233 4.0 9.0 0.00 0.00 0.00 41 1017.2
20260830173308 90 231 3.0 9.0 0.00 0.00 0.00 41 1017.2
20260830172543 90 213 3.0 7.0 0.00 0.00 0.00 41 1017.3
20260830172042 89 130 4.0 7.0 0.00 0.00 0.00 42 1017.3
20260830171543 89 231 4.0 9.0 0.00 0.00 0.00 41 1017.3
20260830171043 90 151 4.0 9.0 0.00 0.00 0.00 40 1017.3
20260830170543 91 211 4.0 9.0 0.00 0.00 0.00 41 1017.2
20260830170042 90 161 3.0 8.0 0.00 0.00 0.00 41 1017.3
20260830165544 91 218 2.0 7.0 0.00 0.00 0.00 40 1017.3
20260830165042 90 220 2.0 7.0 0.00 0.00 0.00 42 1017.3
20260830165036 89 146 3.0 7.0 0.00 0.00 0.00 42 1017.3
20260830164043 88 237 3.0 8.0 0.00 0.00 0.00 43 1017.3
20260830163543 88 179 3.0 8.0 0.00 0.00 0.00 42 1017.3
20260830163043 88 147 2.0 5.0 0.00 0.00 0.00 43 1017.4
20260830162544 88 154 3.0 7.0 0.00 0.00 0.00 42 1017.4
20260830162042 88 146 2.0 7.0 0.00 0.00 0.00 42 1017.4
20260830161543 89 120 1.0 4.0 0.00 0.00 0.00 41 1017.4
20260830161042 89 147 2.0 6.0 0.00 0.00 0.00 41 1017.5
20260830160543 88 221 2.0 6.0 0.00 0.00 0.00 42 1017.5
20260830160530 87 180 2.0 5.0 0.00 0.00 0.00 44 1017.5
20260830155545 87 127 2.0 5.0 0.00 0.00 0.00 44 1017.5
20260830155536 87 115 2.0 5.0 0.00 0.00 0.00 45 1017.5
20260830154544 86 155 2.0 4.0 0.00 0.00 0.00 45 1017.6
20260830154038 86 143 2.0 5.0 0.00 0.00 0.00 46 1017.5
20260830153532 86 169 3.0 6.0 0.00 0.00 0.00 46 1017.4
20260830153021 87 165 2.0 6.0 0.00 0.00 0.00 45 1017.5
20260830152515 87 146 2.0 6.0 0.00 0.00 0.00 45 1017.5
20260830152010 86 127 2.0 6.0 0.00 0.00 0.00 46 1017.4
20260830151459 85 190 2.0 4.0 0.00 0.00 0.00 49 1017.3
20260830151219 84 154 1.0 3.0 0.00 0.00 0.00 50 1017.4
20260830150448 84 133 0.0 2.0 0.00 0.00 0.00 52 1017.4
20260830145937 83 150 0.0 1.0 0.00 0.00 0.00 54 1017.4
20260830145432 82 150 0.0 1.0 0.00 0.00 0.00 54 1017.4
20260830144926 82 54 0.0 0.0 0.00 0.00 0.00 54 1017.4
20260830144416 82 4 0.0 0.0 0.00 0.00 0.00 54 1017.4
20260830143910 81 4 0.0 3.0 0.00 0.00 0.00 55 1017.4
20260830143405 81 4 0.0 3.0 0.00 0.00 0.00 54 1017.4
20260830142854 81 195 0.0 0.0 0.00 0.00 0.00 54 1017.4
20260830142347 81 195 0.0 0.0 0.00 0.00 0.00 55 1017.5
20260830142101 81 195 0.0 0.0 0.00 0.00 0.00 55 1017.5
20260830141332 81 195 0.0 0.0 0.00 0.00 0.00 55 1017.5